Weather History for Fort Smith, AR

Change the Weather History Date:

Friday, April 25, 2014

  Actual Average Record
Temperature  
Mean Temperature 63 °F 64 °F  
Max Temperature 81 °F 76 °F 89 °F (2012)
Min Temperature 45 °F 53 °F 35 °F (1910)
Degree Days  
Heating Degree Days 2 3  
Month to date heating degree days 126 142  
Since 1 July heating degree days 3530 3201  
Cooling Degree Days 0 2  
Month to date cooling degree days 38 40  
Year to date cooling degree days 38 52  
Growing Degree Days 13 (Base 50)    
Moisture  
Dew Point 42 °F    
Average Humidity 52    
Maximum Humidity 86    
Minimum Humidity 18    
Precipitation  
Precipitation 0.00 in 0.16 in 3.21 in (1924)
Month to date precipitation 2.53 3.49  
Year to date precipitation 8.15 12.91  
Sea Level Pressure  
Sea Level Pressure 29.96 in    
Wind  
Wind Speed 4 mph (South)    
Max Wind Speed 12 mph    
Max Gust Speed 14 mph    
Visibility 10 miles    
Events      
T = Trace of Precipitation, MM = Missing Value Source: NWS Daily Summary

Daily Weather History Graph

Daily Weather History Graph

Search for Another Location

Airport:

Trip Planner

Search our weather history database for the weather conditions in past years. The results will help you decide how hot, cold, wet, or windy it might be!

Date:

Astronomy

Apr. 25, 2014 Rise Set
Actual Time 6:32 AM CDT 7:58 PM CDT
Civil Twilight 6:05 AM CDT 8:25 PM CDT
Nautical Twilight 5:33 AM CDT 8:57 PM CDT
Astronomical Twilight 5:00 AM CDT 9:31 PM CDT
Moon 4:12 AM CDT (4/25) 4:29 PM CDT (4/25)
Length of Visible Light 14h 19m
Length of Day
13h 25m
Waning Crescent, 15% of the Moon is Illuminated
Apr 25
Waning Crescent
Apr 29
New
May 6
First Quarter
May 14
Full
May 21
Last Quarter

Hourly Weather History & Observations

Time (CDT) Temp. Dew Point Humidity Pressure Visibility Wind Dir Wind Speed Gust Speed Precip Events Conditions
12:53 AM 52.0 °F 46.0 °F 80% 29.92 in 10.0 mi West 11.5 mph - N/A   Clear
1:53 AM 51.1 °F 45.0 °F 80% 29.93 in 10.0 mi West 11.5 mph - N/A   Clear
2:53 AM 50.0 °F 44.1 °F 80% 29.94 in 10.0 mi SSW 3.5 mph - N/A   Clear
3:53 AM 50.0 °F 45.0 °F 83% 29.95 in 10.0 mi West 8.1 mph - N/A   Clear
4:53 AM 50.0 °F 45.0 °F 83% 29.96 in 10.0 mi SW 3.5 mph - N/A   Clear
5:53 AM 46.9 °F 43.0 °F 86% 29.96 in 10.0 mi Calm Calm - N/A   Clear
6:53 AM 46.9 °F 43.0 °F 86% 29.99 in 10.0 mi Calm Calm - N/A   Clear
7:53 AM 51.1 °F 46.9 °F 86% 30.03 in 10.0 mi Calm Calm - N/A   Clear
8:53 AM 59.0 °F 48.0 °F 67% 30.04 in 10.0 mi Calm Calm - N/A   Clear
9:53 AM 63.0 °F 48.0 °F 58% 30.04 in 10.0 mi Calm Calm - N/A   Clear
10:53 AM 68.0 °F 44.1 °F 42% 30.05 in 10.0 mi SW 4.6 mph - N/A   Clear
11:53 AM 72.0 °F 42.1 °F 34% 30.05 in 10.0 mi Variable 4.6 mph - N/A   Clear
12:53 PM 75.9 °F 39.0 °F 26% 30.02 in 10.0 mi Calm Calm - N/A   Clear
1:53 PM 78.1 °F 35.1 °F 21% 29.99 in 10.0 mi Calm Calm - N/A   Clear
2:53 PM 80.1 °F 36.0 °F 20% 29.97 in 10.0 mi Variable 6.9 mph - N/A   Clear
3:53 PM 80.1 °F 33.1 °F 18% 29.94 in 10.0 mi South 4.6 mph - N/A   Clear
4:53 PM 81.0 °F 35.1 °F 19% 29.92 in 10.0 mi Variable 3.5 mph - N/A   Clear
5:53 PM 81.0 °F 33.1 °F 18% 29.90 in 10.0 mi South 5.8 mph - N/A   Clear
6:53 PM 79.0 °F 37.9 °F 23% 29.88 in 10.0 mi SE 6.9 mph - N/A   Clear
7:53 PM 75.0 °F 41.0 °F 29% 29.89 in 10.0 mi SE 3.5 mph - N/A   Clear
8:53 PM 66.0 °F 48.9 °F 54% 29.91 in 10.0 mi Calm Calm - N/A   Clear
9:53 PM 66.0 °F 45.0 °F 47% 29.91 in 10.0 mi SSE 3.5 mph - N/A   Clear
10:53 PM 64.9 °F 42.1 °F 43% 29.91 in 10.0 mi SSE 4.6 mph - N/A   Clear
11:53 PM 62.1 °F 44.1 °F 52% 29.91 in 10.0 mi East 4.6 mph - N/A   Clear